FW6589 Weather Reports


time (UTC)temp
F
wind
direction
speed
knots
gust
knots
rain 1hr
in
rain 24hr
in
rain mn
in
humidity
%
barometer
mb
20260906151556 72 0 0.0 1.7 0.00 0.00 0.00 94 1020.2
20260906150050 70 0 0.0 2.6 0.00 0.00 0.00 96 1020.2
20260906144613 69 0 0.0 0.9 0.00 0.00 0.00 98 1019.9
20260906143102 68 0 0.0 0.0 0.00 0.00 0.00 98 1019.8
20260906141601 67 0 0.0 1.7 0.00 0.00 0.00 98 1020.0
20260906140107 67 0 0.0 0.0 0.00 0.00 0.00 98 1020.1
20260906134624 66 0 0.0 0.9 0.00 0.00 0.00 98 1020.1
20260906133103 65 0 0.0 0.9 0.00 0.00 0.00 98 1020.1
20260906131557 64 0 0.0 0.0 0.00 0.00 0.00 98 1019.9
20260906130104 64 0 0.0 0.9 0.00 0.00 0.00 97 1020.1
20260906124606 64 0 0.0 0.0 0.00 0.00 0.00 97 1020.0
20260906123100 63 0 0.0 0.0 0.00 0.00 0.00 97 1020.0
20260906121605 63 0 0.0 0.0 0.00 0.00 0.00 97 1019.8
20260906120107 63 0 0.0 0.0 0.00 0.00 0.00 97 1019.6
20260906114617 63 0 0.0 0.0 0.00 0.00 0.00 97 1019.5
20260906113057 63 0 0.0 0.0 0.00 0.00 0.00 97 1019.0
20260906111621 63 0 0.0 0.0 0.00 0.00 0.00 97 1018.9
20260906110057 64 0 0.0 0.0 0.00 0.00 0.00 97 1018.8
20260906104551 64 0 0.0 0.0 0.00 0.00 0.00 97 1018.7
20260906103057 65 0 0.0 0.0 0.00 0.00 0.00 97 1018.4
20260906101600 65 0 0.0 0.0 0.00 0.00 0.00 97 1018.3
20260906100057 65 0 0.0 0.0 0.00 0.00 0.00 97 1018.3
20260906094551 65 0 0.0 0.0 0.00 0.00 0.00 97 1018.4
20260906093108 65 0 0.0 0.0 0.00 0.00 0.00 97 1018.3
20260906091557 65 245 0.0 0.9 0.00 0.00 0.00 97 1018.3
20260906090119 64 0 0.0 0.0 0.00 0.00 0.00 97 1018.2
20260906084556 64 0 0.0 0.0 0.00 0.00 0.00 96 1018.2
20260906083057 65 0 0.0 0.0 0.00 0.00 0.00 96 1018.2
20260906081604 65 0 0.0 0.0 0.00 0.00 0.00 96 1018.2
20260906080100 65 0 0.0 0.0 0.00 0.00 0.00 96 1018.1
20260906074606 65 0 0.0 0.0 0.00 0.00 0.00 96 1018.3
20260906073107 65 0 0.0 0.0 0.00 0.00 0.00 96 1018.4
20260906071600 64 0 0.0 0.0 0.00 0.00 0.00 96 1018.4
20260906070125 65 0 0.0 0.0 0.00 0.00 0.00 95 1018.5
20260906064556 65 0 0.0 0.0 0.00 0.00 0.00 95 1018.7
20260906063059 66 0 0.0 0.0 0.00 0.00 0.00 95 1018.8
20260906061635 67 0 0.0 0.0 0.00 0.00 0.00 94 1018.9
20260906060100 68 0 0.0 0.0 0.00 0.00 0.00 94 1018.8
20260906054557 68 0 0.0 0.0 0.00 0.00 0.00 94 1018.7
20260906053058 69 0 0.0 0.0 0.00 0.00 0.00 94 1018.7
20260906051558 69 0 0.0 0.0 0.00 0.00 0.00 94 1018.6
20260906050110 70 0 0.0 0.0 0.00 0.00 0.00 94 1018.4
20260906044553 70 0 0.0 0.0 0.00 0.00 0.00 93 1018.2
20260906043109 70 0 0.0 2.6 0.00 0.00 0.00 93 1018.2
20260906041600 71 0 0.0 2.6 0.00 0.00 0.00 94 1017.9
20260906040115 71 0 0.0 0.9 0.00 0.00 0.00 94 1017.7
20260906034553 71 0 0.0 0.9 0.00 0.00 0.00 94 1017.6
20260906033102 71 0 0.0 0.0 0.00 0.00 0.00 95 1017.2
20260906031607 71 0 0.0 0.0 0.00 0.00 0.00 95 1017.2
20260906030107 71 0 0.0 0.0 0.00 0.00 0.00 95 1017.0
20260906024551 71 0 0.0 0.0 0.00 0.00 0.00 94 1016.8
20260906023130 71 0 0.0 0.0 0.00 0.00 0.00 94 1016.4
20260906021558 71 0 0.0 0.0 0.00 0.00 0.00 94 1016.4
20260906020056 71 0 0.0 0.0 0.00 0.00 0.00 93 1016.1
20260906014623 72 0 0.0 0.0 0.00 0.00 0.00 93 1016.0
20260906013101 72 0 0.0 0.0 0.00 0.00 0.00 92 1015.8
20260906011601 73 0 0.0 0.0 0.00 0.00 0.00 91 1015.9
20260906010111 73 0 0.0 0.0 0.00 0.00 0.00 91 1016.0
20260906004609 74 0 0.0 0.0 0.00 0.00 0.00 90 1015.9
20260906003059 75 0 0.0 0.0 0.00 0.00 0.00 89 1015.9
20260906001557 76 0 0.0 0.0 0.00 0.00 0.00 88 1015.9
20260906000104 77 0 0.0 0.0 0.00 0.00 0.00 87 1015.9
20260905234556 78 0 0.0 2.6 0.00 0.00 0.00 86 1016.0
20260905233059 79 0 0.0 1.7 0.00 0.00 0.00 85 1015.9
20260905231556 79 0 0.0 0.9 0.00 0.00 0.00 86 1015.9
20260905230108 79 260 0.9 1.7 0.00 0.00 0.00 85 1016.1
20260905224607 79 237 0.0 3.5 0.00 0.00 0.00 84 1016.1
20260905223057 79 232 1.7 5.2 0.00 0.00 0.00 85 1016.2
20260905221553 79 0 0.0 4.3 0.00 0.00 0.00 85 1016.0
20260905220112 78 0 0.0 3.5 0.00 0.00 0.00 86 1016.1
20260905214557 79 258 0.9 5.2 0.00 0.00 0.00 84 1016.1
20260905213054 80 290 0.9 3.5 0.00 0.00 0.00 86 1015.6
20260905211604 80 259 1.7 5.2 0.00 0.00 0.00 85 1015.7
20260905210058 80 246 0.9 5.2 0.00 0.00 0.00 86 1015.8
20260905204555 81 277 0.9 5.2 0.00 0.00 0.00 87 1015.9
20260905203059 80 288 0.9 4.3 0.00 0.00 0.00 86 1015.9
20260905201600 80 257 0.9 3.5 0.00 0.00 0.00 86 1016.1
20260905200100 81 276 0.9 5.2 0.00 0.00 0.00 85 1016.0
20260905194554 80 245 0.0 5.2 0.00 0.00 0.00 87 1016.0
20260905193101 80 224 0.9 4.3 0.00 0.00 0.00 86 1016.0
20260905191603 81 244 0.9 3.5 0.00 0.00 0.00 85 1016.0
20260905190114 82 255 0.9 2.6 0.00 0.00 0.00 86 1016.0
20260905184603 81 258 0.0 3.5 0.00 0.00 0.00 87 1016.0
20260905183124 81 272 1.7 4.3 0.00 0.00 0.00 86 1016.1
20260905181604 81 297 1.7 6.1 0.00 0.00 0.00 87 1016.1
20260905180104 80 267 0.9 6.1 0.00 0.00 0.00 88 1016.2
20260905174602 80 236 0.9 4.3 0.00 0.00 0.00 87 1016.3
20260905173100 80 280 1.7 5.2 0.00 0.00 0.00 88 1016.6
20260905171604 81 266 1.7 4.3 0.00 0.00 0.00 86 1016.6
20260905170058 80 280 1.7 4.3 0.00 0.00 0.00 89 1016.4
20260905164606 78 258 0.9 7.0 0.00 0.04 0.00 90 1016.6
20260905163101 77 274 1.7 5.2 0.00 0.04 0.00 90 1016.6
20260905161558 77 273 0.9 3.5 0.00 0.04 0.00 92 1016.5
20260905160111 77 270 0.9 6.1 0.00 0.04 0.00 92 1016.6
20260905154602 77 260 0.9 4.3 0.00 0.04 0.00 92 1016.5
20260905153111 77 278 0.9 3.5 0.00 0.04 0.00 92 1016.5